Regional Weather Roundup
Issued by NWS

Home | Current Version | Previous Version | Text Only | Print | Product List | Glossary On
Versions: 1 2 3 4 5 6 7 8 9 10 11 12 13 14 15 16 17 18 19 20 21 22 23 24 25 26 27 28 29 30 31 32 33 34 35 36 37 38 39 40 41 42 43 44 45 46 47 48 49 50
000
ASUS43 KIND 252209
RWRIN

WEATHER ROUNDUP FOR INDIANA
NATIONAL WEATHER SERVICE INDIANAPOLIS IN
600 PM EDT SAT MAR 25 2017

NOTE: "FAIR" INDICATES FEW OR NO CLOUDS BELOW 12,000 FEET WITH NO
SIGNIFICANT WEATHER AND/OR OBSTRUCTIONS TO VISIBILITY.

* - STATION DOES NOT REPORT WEATHER SUCH AS PRECIPITATION OR FOG.

+ - STATION NOT QUALITY CONTROLLED BY THE NATIONAL WEATHER SERVICE.
    USE DATA WITH CAUTION...ESPECIALLY DEWPOINT AND RELATIVE
    HUMIDITY OBSERVATIONS.

INZ001>003-010>013-019-020-252300-
NORTHWEST INDIANA

CITY           SKY/WX    TMP DP  RH WIND       PRES   REMARKS
GARY /AIRPORT/ RAIN      48  48 100 W7        29.98R
KNOX *+        CLOUDY    61  37  41 NE8       29.96R
LA PORTE +     HVY RAIN  58  53  85 E8        29.99R
MICHIGAN CITY+ RAIN      59  52  77 E3        29.98R
MONTICELLO +   LGT RAIN  65  56  72 SE3       29.94S
RENSSELAER +   RAIN      61  57  88 S10       29.96R
VALPARAISO     CLOUDY    61  56  83 SE5       29.97R HAZE

$$

LMZ046-743>745-252300-
SOUTHERN LAKE MICHIGAN

STATION/POSITION TIME  TEMP    WIND        PRES    WAVE
                       AIR SEA DIR/SP/G            HT
                 (UTC) (F)     (DEG/KT/KT) (MB)    (FT)
BURNS HARBOR     2140   60     110/ 10/ 15 1015.2R
MICHIGAN CITY    2140   59      90/ 14/ 16   N/A

$$

INZ004-005-014>016-021>024-252300-
NORTH CENTRAL INDIANA

CITY           SKY/WX    TMP DP  RH WIND       PRES   REMARKS
ELKHART        SUNNY     59  48  67 E20       30.00F
GOSHEN         CLOUDY    57  46  66 E20       30.01F
LOGANSPORT +   CLOUDY    63  59  88 CALM      29.96F
PERU/GRISSOM   LGT RAIN  70  55  60 SW6       29.94F
ROCHESTER +    CLOUDY    64  59  82 S9G17     29.98R
SOUTH BEND     CLOUDY    58  49  72 E14G20    29.99F
WARSAW +       CLOUDY    59  46  63 E16G28    29.99F

$$

INZ006>009-017-018-025>027-252300-
NORTHEAST INDIANA

CITY           SKY/WX    TMP DP  RH WIND       PRES   REMARKS
ANGOLA *+      SUNNY     48  45  87 E21       30.08F
AUBURN +       PTSUNNY   52  43  71 E15G21    30.06F
FORT WAYNE     CLOUDY    56  45  66 NE23G30   30.03S
HUNTINGTON +   PTSUNNY   59  48  66 E14G23    30.01S
KENDALLVILLE + CLOUDY    51  44  78 E16       30.06S

$$

INZ028-029-035-036-043>045-051>053-252300-
WEST CENTRAL INDIANA

CITY           SKY/WX    TMP DP  RH WIND       PRES   REMARKS
CRAWFORDSVL +  CLOUDY    66  54  64 S5        29.93F
GREENCASTLE +  CLOUDY    70  50  49 S7        29.94S
LAFAYETTE      CLOUDY    67  54  63 SW7       29.93F
TERRE HAUTE    LGT RAIN  67  54  63 S8        29.92F

$$

INZ030>032-037>040-046>048-054>057-064-065-252300-
CENTRAL INDIANA

CITY           SKY/WX    TMP DP  RH WIND       PRES   REMARKS
CP ATTERBURY + CLOUDY    73  48  40 SE14G22   29.95F
COLUMBUS       SUNNY     73  50  43 S21G28    29.95F
FISHERS *+     CLOUDY    72  55  56 S14       29.94F
FRANKFORT +    CLOUDY    66  61  84 SE8       29.97S
GREENWOOD *+   PTSUNNY   74  51  43 S12G22    29.95F
INDIANAPOLIS   CLOUDY    71  56  58 S7        29.93F
-EAGLE CREEK   CLOUDY    69  54  58 SE6       29.93F
KOKOMO +       CLOUDY    70  55  59 SE9       29.96F
MARION +       PTSUNNY   73  51  46 S14       29.97F
MT COMFORT *+  PTSUNNY   73  52  46 S9        29.96F
SHELBYVILLE    CLOUDY    76  49  38 S15       29.94F
ZIONSVILLE +   CLOUDY    71  52  51 S10       29.96S

$$

INZ033-034-041-042-049-050-058-059-252300-
EAST CENTRAL INDIANA

CITY           SKY/WX    TMP DP  RH WIND       PRES   REMARKS
MUNCIE         CLOUDY    75  51  43 SE9       29.97F
RICHMOND +     CLOUDY    70  52  52 S14       30.02S

$$

INZ060-061-067>069-081>083-085>088-252300-
SOUTHWEST INDIANA

CITY           SKY/WX    TMP DP  RH WIND       PRES   REMARKS
EVANSVILLE     CLOUDY    68  52  56 S16G24    29.93F
HUNTINGBURG *+ CLOUDY    70  54  56 SW12      29.94F
WASHINGTON +   CLOUDY    69  49  50 MISG      29.92F

$$

INZ062-063-066-070>080-084-089>092-252300-
SOUTH CENTRAL AND SOUTHEAST INDIANA

CITY           SKY/WX    TMP DP  RH WIND       PRES   REMARKS
BEDFORD +      CLOUDY    68  54  60 SW24G32   29.97R
BLOOMINGTON    LGT RAIN  69  52  54 SW14G26   29.96R
MADISON *+     CLOUDY    73  45  35 SE15      30.00F
NORTH VERNON + PTSUNNY   75  45  33 S14G22    29.98S
SEYMOUR +      PTSUNNY   75  52  43 S15G22    29.95F

$$




USA.gov is the U.S. government's official web portal to all federal, state and local government web resources and services.